SCP
2 2 2 2 2 2 1 1 1 1 1 1 1 1 1 0 0 0 0 0 0 0 1 1 0 0 0 0 0 0 0 0 0 0 1 1 1 0 0 0 0 0 0
2 2 2 2 2 2 2 1 1 1 1 1 1 1 1 0 0 0 0 0 0 0 0 0 0 0 0 0 0 0 0 0 0 0 0 0 0 0 0 0 0 0 0
2 2 2 2 3 2 2 2 2 1 1 1 1 1 1 1 0 0 0 0 0 0 0 0 0 0 0 0 0 0 0 0 0 0 0 0 0 0 0 0 0 0 0
2 2 3 3 3 3 2 2 2 2 1 1 1 1 1 1 1 0 0 1 0 0 0 0 0 0 0 0 0 0 0 0 0 0 0 0 0 0 0 0 0 0 0
2 2 3 3 3 3 3 2 2 2 2 1 1 1 1 1 1 1 1 1 1 1 0 0 0 0 0 0 0 0 0 0 0 0 0 0 0 0 0 0 0 0 0
3 2 3 3 4 3 3 3 2 2 2 2 1 1 1 1 1 1 1 1 1 1 1 0 0 0 0 0 0 0 0 0 0 0 0 0 0 1 1 1 1 0 0
3 2 3 4 4 4 4 3 2 2 2 2 2 1 1 1 1 1 1 1 1 1 1 0 0 0 0 0 0 0 0 0 0 0 0 0 0 1 1 1 1 0 0
3 3 3 4 4 4 4 3 3 2 2 2 2 2 1 1 1 1 1 1 1 1 1 0 0 0 0 0 0 0 0 0 0 0 0 0 1 1 1 1 0 0 0
3 3 3 4 4 4 4 4 3 3 2 2 2 2 2 2 1 1 1 1 1 1 1 0 0 0 0 0 0 0 0 0 0 0 0 1 1 1 1 1 0 0 0
4 4 4 4 4 4 4 4 3 3 3 2 2 2 2 2 1 1 1 1 1 1 1 1 0 0 0 0 0 0 0 0 0 0 0 1 1 1 1 1 1 0 0
5 4 4 4 4 4 4 4 3 3 3 2 2 2 2 2 2 1 1 1 1 1 1 1 1 0 0 0 0 0 0 0 0 0 0 1 1 1 1 1 1 1 1
6 5 4 4 4 4 4 4 3 3 3 2 2 2 2 2 2 1 1 1 1 1 1 1 1 1 0 0 0 0 0 0 0 0 0 1 1 1 1 1 1 1 1
6 5 4 4 4 4 4 3 4 3 3 3 2 2 2 2 2 1 1 1 1 1 1 1 1 1 0 0 0 0 0 0 0 0 0 1 1 1 2 2 1 1 1
6 5 4 3 4 4 4 3 4 4 3 3 3 2 2 2 2 2 1 1 1 1 1 1 1 1 1 0 0 0 0 1 1 0 0 0 1 1 2 2 2 2 2
5 5 4 3 3 3 4 4 4 4 4 3 2 2 2 2 2 2 2 1 1 1 1 1 1 1 1 1 1 1 1 1 1 1 0 0 1 1 1 1 1 1 2
4 4 4 3 3 3 4 4 4 4 4 3 2 2 2 2 2 2 2 1 1 1 1 1 1 1 1 1 1 1 1 1 1 1 0 0 1 1 1 1 1 1 1
4 4 3 3 3 3 3 4 4 5 5 4 3 2 2 2 2 2 2 1 1 1 1 1 1 1 1 1 1 1 1 1 1 1 0 0 0 0 1 0 0 1 1
4 4 4 3 3 3 3 4 4 5 5 5 4 3 2 2 2 2 2 1 1 1 1 2 2 1 1 1 1 1 1 1 1 1 1 0 0 0 0 0 0 0 1
3 4 4 4 3 3 3 3 4 5 5 5 5 4 3 2 2 2 2 1 1 1 1 2 2 2 1 1 1 1 0 0 0 0 1 0 0 0 0 0 0 0 0
2 3 4 4 3 3 3 3 4 5 5 5 5 4 3 2 2 2 2 1 1 1 1 1 2 2 1 1 0 0 0 0 0 0 0 0 0 0 0 0 0 0 0
2 3 3 4 4 3 3 3 3 5 6 5 5 4 3 2 1 1 1 1 1 1 1 1 1 1 1 1 0 0 0 0 0 0 0 0 0 0 0 0 0 0 0
2 2 3 4 4 3 3 2 3 4 6 6 5 4 3 2 1 1 1 1 1 1 2 1 1 1 1 1 0 0 0 0 0 0 0 0 0 0 0 0 0 0 0
1 1 2 3 4 3 2 2 2 4 6 7 6 5 3 2 1 1 1 0 0 1 1 1 1 1 1 1 0 0 0 0 0 0 0 0 0 0 0 0 0 0 0
1 1 1 2 3 3 2 1 1 3 5 7 7 5 3 2 2 1 1 1 0 0 1 1 1 1 1 1 1 0 0 0 0 0 0 0 0 0 0 0 0 0 0
1 1 1 1 3 3 2 1 1 2 5 6 6 5 3 2 2 2 1 1 0 0 1 1 1 1 1 1 1 0 0 0 0 0 0 0 0 0 0 0 0 0 0
1 1 1 1 2 2 2 1 1 2 4 5 6 5 4 2 2 2 1 1 1 0 1 1 1 1 1 1 1 0 0 0 0 0 0 0 0 0 0 0 0 0 0
Wind_Speed
3 4 4 4 6 8 9 9 10 10 10 10 10 11 11 11 12 12 12 12 13 13 13 14 14 14 15 15 15 15 15 15 16 16 15 15 15 15 15 14 13 11 17
4 5 5 5 7 7 8 9 9 9 9 10 10 10 10 11 11 11 11 12 12 12 13 13 13 14 14 14 14 14 14 14 14 13 12 12 13 15 15 15 14 11 16
6 6 5 6 7 7 8 9 9 9 9 9 9 10 10 10 10 11 11 11 11 12 12 13 13 13 14 13 13 12 12 10 9 10 10 6 9 14 15 15 15 15 15
6 6 5 7 8 8 8 8 9 9 9 9 9 9 9 9 10 10 10 11 11 11 12 13 13 13 13 12 11 10 9 8 7 7 6 6 7 13 14 14 15 15 15
5 5 6 7 8 8 8 8 8 8 9 9 8 8 9 9 9 10 10 11 11 11 12 12 12 12 12 11 10 9 8 7 7 7 6 6 6 12 13 14 14 14 14
6 5 5 7 8 8 7 8 8 8 8 8 8 8 8 9 9 10 10 11 11 11 11 12 12 12 11 10 9 8 7 6 5 5 5 5 5 11 13 13 12 12 13
5 5 5 6 7 7 7 7 7 7 7 8 8 8 8 8 9 10 10 10 11 11 11 11 11 11 9 8 7 7 7 6 5 5 5 5 6 11 12 12 11 11 12
6 6 5 6 6 6 7 7 7 7 7 7 8 7 7 8 8 9 10 10 10 10 10 10 10 10 9 8 6 6 6 5 6 7 6 5 8 11 11 11 11 11 11
7 6 5 4 5 6 6 6 6 6 6 7 7 7 7 7 7 8 8 9 9 9 9 9 9 9 8 7 5 5 5 6 4 4 6 4 9 11 11 11 10 10 11
6 6 5 5 4 3 3 5 6 6 6 6 7 6 6 6 6 7 7 7 8 8 8 8 9 8 7 6 4 4 4 4 4 5 3 5 9 10 10 10 10 10 10
6 5 5 4 4 4 2 4 4 5 5 5 5 5 5 3 4 4 5 6 7 7 7 8 8 8 6 4 2 2 3 2 4 4 3 7 9 9 9 10 10 10 10
5 5 4 4 4 3 2 2 1 2 3 2 2 2 2 2 2 4 5 5 6 7 6 6 7 7 4 2 1 1 1 2 4 3 4 7 8 8 8 9 9 9 9
4 4 4 4 3 3 2 1 1 0 1 1 2 2 2 2 2 3 2 3 3 4 3 3 3 2 2 2 1 0 1 2 3 3 4 6 6 8 8 8 8 8 9
4 4 4 4 3 2 2 1 1 1 0 0 1 2 2 1 2 2 2 2 2 1 1 1 1 1 1 2 2 1 2 2 3 3 3 6 6 7 7 7 7 7 7
4 4 4 4 3 3 2 1 1 0 0 0 1 1 1 1 2 2 2 2 2 1 1 1 1 1 2 2 1 2 2 2 3 4 3 5 5 5 6 6 6 6 6
4 4 4 3 3 3 2 2 1 1 0 0 0 1 1 1 1 2 2 2 2 2 1 1 1 1 1 1 1 2 2 2 3 4 3 3 5 5 4 4 5 5 5
5 4 4 3 3 3 2 2 2 1 1 0 0 1 1 1 2 1 2 2 2 2 2 1 1 1 1 1 2 2 2 2 3 3 3 2 2 4 4 3 3 4 4
5 5 4 4 4 3 3 2 2 1 2 1 0 0 1 1 1 1 2 2 2 1 2 1 1 1 1 1 1 1 1 1 2 3 2 2 2 2 2 4 3 3 3
5 5 4 4 4 4 3 2 2 1 2 1 1 0 1 1 1 1 1 2 2 1 1 2 1 2 2 1 1 1 1 1 1 1 2 2 2 2 2 3 3 3 3
6 5 5 5 5 4 3 2 2 1 2 1 1 1 1 1 1 1 1 2 2 2 1 2 2 2 2 2 1 1 1 0 0 1 1 2 2 2 2 2 2 2 3
7 7 6 5 5 4 3 2 2 2 1 1 1 1 1 1 1 2 2 2 2 2 2 3 2 3 2 2 2 1 1 0 1 1 1 1 2 2 2 2 2 2 2
7 7 6 5 5 4 3 3 2 2 1 1 1 1 1 1 1 2 2 2 3 2 3 3 3 2 2 2 2 2 1 0 1 1 1 1 2 2 2 2 2 2 2
6 7 6 6 5 5 4 3 3 2 1 2 1 1 1 1 1 1 2 2 2 3 3 3 4 3 3 3 2 2 2 2 1 1 2 2 2 2 2 2 2 2 2
6 5 6 5 5 4 4 3 2 2 2 3 2 1 1 1 1 1 2 2 3 2 3 3 3 3 4 4 3 2 2 2 2 1 1 2 2 2 2 2 2 2 2
5 5 5 5 5 5 4 3 3 3 2 2 2 1 1 1 1 1 1 2 3 3 3 3 2 3 3 4 3 2 2 1 2 2 2 2 2 2 2 2 2 2 2
5 5 5 6 5 5 5 4 3 3 3 3 3 1 1 1 1 2 1 1 2 2 3 3 3 4 3 4 3 3 3 2 2 1 2 2 2 2 2 2 2 2 3
Wind_Direction
82 109 121 105 112 118 117 118 117 114 113 113 110 106 102 99 98 97 97 95 92 91 90 89 87 84 83 82 82 82 80 79 79 75 72 71 73 74 73 71 72 70 75
111 123 115 99 106 113 112 114 115 113 113 116 114 110 106 103 101 101 101 100 98 95 94 92 89 87 86 86 85 86 87 87 87 82 76 71 71 74 74 71 74 76 77
99 117 121 90 96 105 106 108 109 110 112 113 113 112 109 107 106 104 103 102 101 99 97 93 91 88 86 85 87 87 88 89 88 86 81 76 75 77 77 75 76 77 77
93 112 122 98 91 94 100 106 107 107 109 110 110 110 111 110 108 106 105 104 103 102 99 95 92 91 88 86 84 85 84 80 75 78 75 73 76 81 80 78 78 77 77
86 102 117 102 95 93 95 100 106 106 107 105 106 108 110 110 109 107 106 103 101 99 98 97 95 92 89 86 84 80 75 68 63 74 72 69 71 83 81 79 79 79 78
78 84 108 102 100 95 92 98 102 107 107 107 106 104 106 108 108 107 106 104 102 100 100 100 98 94 90 87 81 73 65 56 59 76 73 71 74 85 84 81 81 81 82
75 79 95 91 102 100 96 98 102 103 107 107 107 107 107 107 109 108 103 104 105 104 105 105 101 97 94 89 80 64 48 49 74 76 75 71 80 89 87 85 84 84 83
64 72 85 74 77 95 103 103 102 102 102 105 102 103 104 107 109 111 108 105 106 111 110 109 106 101 96 91 78 54 37 45 77 85 81 78 88 91 89 86 86 86 85
62 61 59 63 74 72 87 99 97 95 93 94 96 92 90 95 105 107 111 110 109 109 113 113 111 106 100 91 73 44 32 43 58 81 87 81 90 92 89 85 89 89 88
61 57 52 43 46 61 80 86 92 93 88 88 90 88 89 94 100 104 104 107 109 107 110 118 114 110 103 93 69 38 27 42 70 71 76 89 93 96 93 88 89 90 92
50 48 47 37 34 26 47 83 92 98 94 93 96 95 102 104 103 107 105 105 109 108 112 121 121 115 106 93 65 32 22 63 77 73 69 94 100 99 97 93 90 91 92
39 35 39 33 31 25 31 79 95 124 129 123 126 126 125 106 97 101 105 107 110 111 115 119 126 129 123 119 77 19 23 88 85 81 81 93 102 105 103 99 94 92 93
43 32 25 25 32 26 19 18 55 75 137 148 149 134 107 111 111 105 112 115 118 120 117 126 126 134 139 127 130 127 37 75 85 84 80 87 101 107 106 105 100 97 96
37 26 23 17 23 27 17 356 34 36 25 151 166 136 114 114 117 123 128 135 131 123 123 130 148 161 134 125 142 129 76 73 91 96 86 84 92 107 109 109 108 109 105
31 20 14 18 19 15 11 355 5 27 1 265 183 150 119 122 135 137 141 141 136 129 126 144 163 141 108 117 136 110 99 88 95 96 98 95 96 102 110 114 113 117 119
17 14 8 14 17 8 3 354 340 335 309 291 200 175 141 129 126 141 147 151 150 145 145 165 159 117 101 98 107 111 109 98 97 101 109 100 100 102 106 119 121 120 121
5 8 10 4 12 7 358 346 338 327 325 336 247 197 160 132 131 131 152 160 155 152 147 142 131 98 99 92 84 94 95 101 112 115 121 124 112 102 106 120 128 136 134
7 6 5 2 360 1 357 342 329 340 339 317 267 208 175 163 158 148 164 168 150 140 143 144 130 115 110 99 88 68 76 92 103 121 124 131 133 128 114 119 124 131 143
8 6 5 1 0 0 356 336 337 343 346 330 353 322 216 183 177 166 178 168 154 147 148 161 141 141 130 111 100 83 68 83 119 124 125 127 126 129 136 138 138 140 148
9 10 11 6 4 1 359 348 354 354 354 347 10 3 320 231 202 183 177 170 162 158 162 164 149 129 130 129 98 67 67 143 152 144 147 131 133 145 150 153 149 154 160
12 11 10 9 5 3 355 348 330 317 324 327 327 357 344 284 220 202 186 183 179 179 184 177 153 141 138 121 97 70 10 309 162 154 148 144 153 154 147 160 163 162 170
14 7 5 8 359 355 345 330 304 305 296 303 313 325 338 330 273 217 194 189 193 185 184 176 162 159 169 153 140 134 150 284 295 211 178 171 172 165 169 177 168 169 166
12 5 357 359 355 352 349 349 339 328 319 321 310 303 314 309 283 239 215 208 203 195 193 186 177 176 180 188 175 160 160 197 210 236 216 196 188 181 187 187 182 181 174
4 358 356 354 354 350 353 353 333 303 303 298 280 271 289 294 292 285 222 217 205 198 200 203 191 182 177 185 200 211 184 156 165 202 240 221 206 203 201 203 194 189 184
3 355 350 353 354 351 352 348 323 309 301 311 314 303 300 298 293 286 261 226 209 201 205 205 206 193 188 192 195 197 205 200 194 175 215 214 224 225 207 206 200 192 191
4 355 354 355 352 352 348 340 330 321 323 333 324 313 310 293 296 297 284 262 237 210 209 206 207 207 206 203 207 198 188 188 196 188 199 202 217 233 219 211 210 206 198